440  
ASUS43 KTOP 222308  
RWRKS  
 
WEATHER ROUNDUP FOR KANSAS  
NATIONAL WEATHER SERVICE GOODLAND KS  
600 PM CDT SAT JUN 22 2024  
 
NOTE: "FAIR" INDICATES FEW OR NO CLOUDS BELOW 12,000 FEET WITH NO  
SIGNIFICANT WEATHER AND/OR S TO VISIBILITY
.  
 
KSZ001>006-013>018-027>032-041>047-230000-  
NORTHWEST KANSAS  
 
CITY SKY/WX TMP DP RH WIND PRES REMARKS
 
GOODLAND PTSUNNY 88 48 25 N5 30.04F  
HAYS MOSUNNY 91 66 43 N14 29.92S  
HILL CITY MOSUNNY 94 62 34 N14 29.94F  
RUSSELL MOSUNNY 90 66 45 N12 29.89S  

 
 
KSZ061>065-074>080-084>089-230000-  
SOUTHWEST KANSAS  
 
CITY SKY/WX TMP DP RH WIND PRES REMARKS
 
DODGE CITY MOSUNNY 94 66 39 NE14 29.95S HX 97  
ELKHART PTSUNNY 89 59 36 SE5 30.07F  
GARDEN CITY MOSUNNY 95 48 20 N17 29.96F  
GREAT BEND MOSUNNY 91 67 44 N9 29.91S  
LIBERAL MOSUNNY N/A N/A N/A N3 29.99F  
PRATT MOSUNNY 94 69 43 N9 29.91S HX 99  

 
 
KSZ066>073-081>083-090>101-230000-  
SOUTHEAST KANSAS  
 
CITY SKY/WX TMP DP RH WIND PRES REMARKS
 
CHANUTE MOSUNNY 96 73 47 S18G26 29.85F HX 105  
COFFEYVILLE SUNNY 96 70 42 SW18G28 29.85F HX 102  
HUTCHINSON PTSUNNY 92 72 51 NW9 29.86R HX 99  
MEDICINE LODGE N/A 98 69 38 NW10 29.86S HX 104  
NEWTON MOSUNNY 94 68 42 W14G22 29.86R HX 98  
PARSONS SUNNY 95 72 47 S13G22 29.88S HX 103  
WICHITA INTL MOSUNNY 96 69 41 SW20G30 29.84S HX 102  
WICHITA JABRA MOSUNNY 95 67 39 W16G29 29.84F HX 99  
WICHITA MCCONL MOSUNNY 96 67 38 W15 29.84S HX 100  
WINFIELD PTSUNNY 96 69 41 SW14G23 29.86S HX 102  

 
 
KSZ007>012-019>026-033>040-048>060-102>105-230000-  
NORTHEAST KANSAS  
 
CITY SKY/WX TMP DP RH WIND PRES REMARKS
 
CONCORDIA PTSUNNY 88 71 57 NW13 29.86R  
EMPORIA MOSUNNY 95 72 47 W14G23 29.82F HX 103  
LAWRENCE MOSUNNY 95 76 53 SW10 29.79F HX 108  
MANHATTAN SUNNY 96 74 48 W6 29.79S HX 107  
MARYSVILLE MOSUNNY 88 73 62 N8 29.82S HX 96  
OLATHE IND PTSUNNY 95 71 45 SW16 29.82F HX 102  
OLATHE EXE CLOUDY 91 71 51 SW8 29.82F HX 97  
SALINA SUNNY 95 70 44 NW14 29.84R HX 101  
TOPEKA BILLARD PTSUNNY 95 71 45 SW13G24 29.78F HX 102  
TOPEKA FORBES MOSUNNY 92 72 51 SW9 29.80F HX 99  

 
 
 
CLICK HERE TO GO TO PREVIOUS BULLETINS.

The Nexlab KS Page Main Text Page